Time,TemperatureF,DewpointF,PressureIn,WindDirection,WindDirectionDegrees,WindSpeedMPH,WindSpeedGustMPH,Humidity,HourlyPrecipIn,Conditions,Clouds,dailyrainin,SoftwareType,DateUTC
2013-04-30 00:02:00,57.0,53.0,30.02,SW,235,5.0,5.0,85,0.00,,,0.00,,2013-04-30 04:02:00,
2013-04-30 00:12:00,56.0,52.0,30.03,SW,219,0.0,0.0,87,0.00,,,0.00,,2013-04-30 04:12:00,
2013-04-30 00:22:00,56.0,52.0,30.03,SW,219,0.0,0.0,87,0.00,,,0.00,,2013-04-30 04:22:00,
2013-04-30 00:32:00,56.0,52.0,30.03,SW,219,0.0,0.0,87,0.00,,,0.00,,2013-04-30 04:32:00,
2013-04-30 00:42:00,56.0,52.0,30.03,SW,219,0.0,0.0,87,0.00,,,0.00,,2013-04-30 04:42:00,
2013-04-30 00:52:00,56.0,52.0,30.03,SW,219,0.0,0.0,88,0.00,,,0.00,,2013-04-30 04:52:00,
2013-04-30 01:02:00,56.0,53.0,30.03,SW,219,0.0,0.0,90,0.00,,,0.00,,2013-04-30 05:02:00,
2013-04-30 01:12:00,56.0,53.0,30.03,SW,219,0.0,0.0,90,0.00,,,0.00,,2013-04-30 05:12:00,
2013-04-30 01:22:00,55.0,53.0,30.03,South,188,0.0,0.0,92,0.00,,,0.00,,2013-04-30 05:22:00,
2013-04-30 01:31:00,55.0,53.0,30.02,SW,222,0.0,0.0,93,0.00,,,0.00,,2013-04-30 05:31:00,
2013-04-30 01:42:00,55.0,53.0,30.02,SW,222,0.0,0.0,93,0.00,,,0.00,,2013-04-30 05:42:00,
2013-04-30 01:51:00,54.0,52.0,30.02,SW,222,0.0,0.0,93,0.00,,,0.00,,2013-04-30 05:51:00,
2013-04-30 02:02:00,54.0,53.0,30.02,South,181,0.0,0.0,95,0.00,,,0.00,,2013-04-30 06:02:00,
2013-04-30 02:12:00,54.0,53.0,30.01,South,175,0.0,0.0,95,0.00,,,0.00,,2013-04-30 06:12:00,
2013-04-30 02:21:00,54.0,53.0,30.01,South,175,0.0,0.0,95,0.00,,,0.00,,2013-04-30 06:21:00,
2013-04-30 02:32:00,54.0,53.0,30.01,WSW,241,0.0,0.0,95,0.00,,,0.00,,2013-04-30 06:32:00,
2013-04-30 02:41:00,54.0,53.0,30.01,WSW,241,0.0,0.0,95,0.00,,,0.00,,2013-04-30 06:41:00,
2013-04-30 02:52:00,54.0,53.0,30.01,SSW,205,0.0,0.0,95,0.00,,,0.00,,2013-04-30 06:52:00,
2013-04-30 03:01:00,53.0,52.0,30.02,SSW,205,0.0,0.0,95,0.00,,,0.00,,2013-04-30 07:01:00,
2013-04-30 03:11:00,53.0,52.0,30.02,SSW,205,0.0,0.0,95,0.00,,,0.00,,2013-04-30 07:11:00,
2013-04-30 03:21:00,53.0,52.0,30.01,SSW,205,0.0,0.0,95,0.00,,,0.00,,2013-04-30 07:21:00,
2013-04-30 03:31:00,53.0,52.0,30.01,SSW,195,0.0,0.0,95,0.00,,,0.00,,2013-04-30 07:31:00,
2013-04-30 03:42:00,53.0,52.0,30.01,SSW,195,0.0,0.0,95,0.00,,,0.00,,2013-04-30 07:42:00,
2013-04-30 03:52:00,53.0,52.0,30.01,SSW,195,0.0,0.0,95,0.00,,,0.00,,2013-04-30 07:52:00,
2013-04-30 04:02:00,53.0,52.0,30.02,SSW,195,0.0,0.0,95,0.00,,,0.00,,2013-04-30 08:02:00,
2013-04-30 04:11:00,53.0,52.0,30.02,SSW,195,0.0,0.0,95,0.00,,,0.00,,2013-04-30 08:11:00,
2013-04-30 04:22:00,52.0,51.0,30.03,SSW,195,0.0,0.0,95,0.00,,,0.00,,2013-04-30 08:22:00,
2013-04-30 04:32:00,52.0,51.0,30.03,SSW,195,0.0,0.0,95,0.00,,,0.00,,2013-04-30 08:32:00,
2013-04-30 04:42:00,52.0,51.0,30.03,SSW,195,0.0,0.0,95,0.00,,,0.00,,2013-04-30 08:42:00,
2013-04-30 04:52:00,52.0,51.0,30.03,ENE,67,1.0,3.0,95,0.00,,,0.00,,2013-04-30 08:52:00,
2013-04-30 05:01:00,51.0,50.0,30.03,NNE,24,0.0,0.0,95,0.00,,,0.00,,2013-04-30 09:01:00,
2013-04-30 05:11:00,51.0,50.0,30.03,NNE,24,0.0,0.0,95,0.00,,,0.00,,2013-04-30 09:11:00,
2013-04-30 05:22:00,51.0,50.0,30.03,NNE,24,0.0,0.0,95,0.00,,,0.00,,2013-04-30 09:22:00,
2013-04-30 05:33:00,51.0,50.0,30.03,NNE,24,0.0,0.0,95,0.00,,,0.00,,2013-04-30 09:33:00,
2013-04-30 05:43:00,51.0,50.0,30.03,NNE,24,0.0,0.0,95,0.00,,,0.00,,2013-04-30 09:43:00,
2013-04-30 05:52:00,51.0,50.0,30.04,NNE,24,0.0,0.0,95,0.00,,,0.00,,2013-04-30 09:52:00,
2013-04-30 06:03:00,51.0,50.0,30.04,NNE,24,0.0,0.0,95,0.00,,,0.00,,2013-04-30 10:03:00,
2013-04-30 06:12:00,51.0,50.0,30.04,NNE,24,0.0,0.0,95,0.00,,,0.00,,2013-04-30 10:12:00,
2013-04-30 06:22:00,51.0,50.0,30.04,NNE,24,0.0,0.0,95,0.00,,,0.00,,2013-04-30 10:22:00,
2013-04-30 06:32:00,51.0,50.0,30.04,NNE,24,0.0,0.0,95,0.00,,,0.00,,2013-04-30 10:32:00,
2013-04-30 06:41:00,51.0,50.0,30.04,NNE,24,0.0,0.0,95,0.00,,,0.00,,2013-04-30 10:41:00,
2013-04-30 06:52:00,50.0,49.0,30.04,NE,35,0.0,2.0,95,0.00,,,0.00,,2013-04-30 10:52:00,
2013-04-30 07:02:00,50.0,49.0,30.05,NE,47,0.0,0.0,95,0.00,,,0.00,,2013-04-30 11:02:00,
2013-04-30 07:11:00,50.0,49.0,30.05,NE,47,0.0,0.0,95,0.00,,,0.00,,2013-04-30 11:11:00,
2013-04-30 07:21:00,50.0,49.0,30.06,NE,47,0.0,0.0,95,0.00,,,0.00,,2013-04-30 11:21:00,
2013-04-30 07:31:00,50.0,49.0,30.07,NE,47,0.0,0.0,95,0.00,,,0.00,,2013-04-30 11:31:00,
2013-04-30 07:42:00,50.0,49.0,30.07,NE,47,0.0,0.0,95,0.00,,,0.00,,2013-04-30 11:42:00,
2013-04-30 07:51:00,50.0,49.0,30.06,NE,47,0.0,0.0,95,0.00,,,0.00,,2013-04-30 11:51:00,
2013-04-30 08:01:00,50.0,49.0,30.07,NE,47,0.0,0.0,95,0.00,,,0.00,,2013-04-30 12:01:00,
2013-04-30 08:11:00,50.0,49.0,30.07,NE,47,0.0,0.0,95,0.00,,,0.00,,2013-04-30 12:11:00,
2013-04-30 08:21:00,50.0,49.0,30.08,NE,47,0.0,0.0,95,0.00,,,0.00,,2013-04-30 12:21:00,
2013-04-30 08:31:00,51.0,50.0,30.08,NE,47,0.0,0.0,95,0.00,,,0.00,,2013-04-30 12:31:00,
2013-04-30 08:41:00,51.0,50.0,30.08,NE,47,0.0,0.0,95,0.00,,,0.00,,2013-04-30 12:41:00,
2013-04-30 08:51:00,53.0,52.0,30.09,SSW,201,0.0,2.0,95,0.00,,,0.00,,2013-04-30 12:51:00,
2013-04-30 09:01:00,53.0,52.0,30.09,NE,56,0.0,0.0,95,0.00,,,0.00,,2013-04-30 13:01:00,
2013-04-30 09:11:00,53.0,52.0,30.09,NE,56,0.0,0.0,95,0.00,,,0.00,,2013-04-30 13:11:00,
2013-04-30 09:21:00,55.0,54.0,30.09,SW,222,2.0,5.0,95,0.00,,,0.00,,2013-04-30 13:21:00,
2013-04-30 09:31:00,56.0,55.0,30.09,South,189,0.0,5.0,95,0.00,,,0.00,,2013-04-30 13:31:00,
2013-04-30 09:41:00,56.0,55.0,30.09,South,189,0.0,5.0,95,0.00,,,0.00,,2013-04-30 13:41:00,
2013-04-30 09:52:00,58.0,57.0,30.08,SSW,208,2.0,5.0,95,0.00,,,0.00,,2013-04-30 13:52:00,
2013-04-30 10:02:00,59.0,58.0,30.09,SSW,208,6.0,7.0,95,0.00,,,0.00,,2013-04-30 14:02:00,
2013-04-30 10:11:00,59.0,58.0,30.08,SW,222,3.0,7.0,95,0.00,,,0.00,,2013-04-30 14:11:00,
2013-04-30 10:21:00,59.0,58.0,30.08,SW,222,3.0,7.0,95,0.00,,,0.00,,2013-04-30 14:21:00,
2013-04-30 10:31:00,62.0,61.0,30.08,SW,225,3.0,7.0,95,0.00,,,0.00,,2013-04-30 14:31:00,
2013-04-30 10:41:00,62.0,61.0,30.08,SW,225,3.0,7.0,95,0.00,,,0.00,,2013-04-30 14:41:00,
2013-04-30 10:52:00,63.0,62.0,30.08,SSW,197,2.0,3.0,95,0.00,,,0.00,,2013-04-30 14:52:00,
2013-04-30 11:01:00,64.0,60.0,30.09,SW,225,3.0,7.0,87,0.00,,,0.00,,2013-04-30 15:01:00,
2013-04-30 11:11:00,64.0,60.0,30.09,SW,225,3.0,7.0,87,0.00,,,0.00,,2013-04-30 15:11:00,
2013-04-30 11:21:00,65.0,60.0,30.09,SSE,149,3.0,5.0,84,0.00,,,0.00,,2013-04-30 15:21:00,
2013-04-30 11:32:00,66.0,58.0,30.09,South,175,2.0,5.0,76,0.00,,,0.00,,2013-04-30 15:32:00,
2013-04-30 11:42:00,66.0,58.0,30.09,South,175,2.0,5.0,76,0.00,,,0.00,,2013-04-30 15:42:00,
2013-04-30 11:52:00,67.0,58.0,30.09,SSW,209,5.0,5.0,73,0.00,,,0.00,,2013-04-30 15:52:00,
2013-04-30 12:02:00,69.0,58.0,30.09,SSW,205,2.0,5.0,67,0.00,,,0.00,,2013-04-30 16:02:00,
2013-04-30 12:12:00,69.0,58.0,30.09,SSW,205,2.0,5.0,67,0.00,,,0.00,,2013-04-30 16:12:00,
2013-04-30 12:23:00,69.0,56.0,30.09,South,184,5.0,7.0,63,0.00,,,0.00,,2013-04-30 16:23:00,
2013-04-30 12:33:00,70.0,56.0,30.09,SSW,204,1.0,6.0,61,0.00,,,0.00,,2013-04-30 16:33:00,
2013-04-30 12:42:00,70.0,56.0,30.09,SSW,204,1.0,6.0,61,0.00,,,0.00,,2013-04-30 16:42:00,
2013-04-30 12:52:00,71.0,56.0,30.09,SW,228,5.0,5.0,59,0.00,,,0.00,,2013-04-30 16:52:00,
2013-04-30 13:02:00,72.0,55.0,30.09,South,171,0.0,0.0,55,0.00,,,0.00,,2013-04-30 17:02:00,
2013-04-30 13:12:00,72.0,54.0,30.08,WSW,258,0.0,0.0,54,0.00,,,0.00,,2013-04-30 17:12:00,
2013-04-30 13:22:00,72.0,54.0,30.08,WSW,258,0.0,0.0,54,0.00,,,0.00,,2013-04-30 17:22:00,
2013-04-30 13:32:00,73.0,54.0,30.09,WSW,241,2.0,5.0,52,0.00,,,0.00,,2013-04-30 17:32:00,
2013-04-30 13:42:00,74.0,54.0,30.08,SW,222,1.0,7.0,50,0.00,,,0.00,,2013-04-30 17:42:00,
2013-04-30 13:52:00,74.0,54.0,30.08,SW,222,1.0,7.0,50,0.00,,,0.00,,2013-04-30 17:52:00,
2013-04-30 14:01:00,75.0,53.0,30.08,SW,217,0.0,0.0,47,0.00,,,0.00,,2013-04-30 18:01:00,
2013-04-30 14:11:00,74.0,52.0,30.07,SW,236,3.0,6.0,46,0.00,,,0.00,,2013-04-30 18:11:00,
2013-04-30 14:22:00,74.0,52.0,30.07,SW,236,3.0,6.0,46,0.00,,,0.00,,2013-04-30 18:22:00,
2013-04-30 14:32:00,75.0,51.0,30.07,SSW,196,0.0,6.0,43,0.00,,,0.00,,2013-04-30 18:32:00,
2013-04-30 14:42:00,76.0,52.0,30.06,WSW,239,3.0,6.0,44,0.00,,,0.00,,2013-04-30 18:42:00,
2013-04-30 14:51:00,76.0,52.0,30.06,WSW,239,3.0,6.0,44,0.00,,,0.00,,2013-04-30 18:51:00,
2013-04-30 15:01:00,75.0,48.0,30.06,West,270,0.0,0.0,38,0.00,,,0.00,,2013-04-30 19:01:00,
2013-04-30 15:11:00,76.0,49.0,30.06,WSW,253,0.0,0.0,38,0.00,,,0.00,,2013-04-30 19:11:00,
2013-04-30 15:22:00,76.0,49.0,30.06,WSW,253,0.0,0.0,38,0.00,,,0.00,,2013-04-30 19:22:00,
2013-04-30 15:32:00,77.0,48.0,30.06,East,91,0.0,2.0,36,0.00,,,0.00,,2013-04-30 19:32:00,
2013-04-30 15:42:00,78.0,50.0,30.05,SW,232,1.0,5.0,37,0.00,,,0.00,,2013-04-30 19:42:00,
2013-04-30 15:52:00,78.0,50.0,30.05,SW,232,1.0,5.0,37,0.00,,,0.00,,2013-04-30 19:52:00,
2013-04-30 16:02:00,80.0,49.0,30.04,ESE,103,3.0,7.0,34,0.00,,,0.00,,2013-04-30 20:02:00,
2013-04-30 16:11:00,80.0,50.0,30.04,ENE,60,1.0,7.0,35,0.00,,,0.00,,2013-04-30 20:11:00,
2013-04-30 16:21:00,80.0,50.0,30.04,ENE,60,1.0,7.0,35,0.00,,,0.00,,2013-04-30 20:21:00,
2013-04-30 16:32:00,80.0,47.0,30.04,SSW,193,1.0,5.0,32,0.00,,,0.00,,2013-04-30 20:32:00,
2013-04-30 16:42:00,80.0,47.0,30.04,SSW,193,1.0,5.0,32,0.00,,,0.00,,2013-04-30 20:42:00,
2013-04-30 16:52:00,82.0,49.0,30.03,South,187,0.0,5.0,32,0.00,,,0.00,,2013-04-30 20:52:00,
2013-04-30 17:02:00,81.0,45.0,30.03,East,85,0.0,3.0,28,0.00,,,0.00,,2013-04-30 21:02:00,
2013-04-30 17:11:00,80.0,46.0,30.03,SSE,150,2.0,5.0,30,0.00,,,0.00,,2013-04-30 21:11:00,
2013-04-30 17:22:00,80.0,46.0,30.03,SSE,150,2.0,5.0,30,0.00,,,0.00,,2013-04-30 21:22:00,
2013-04-30 17:32:00,81.0,45.0,30.03,ENE,59,0.0,0.0,28,0.00,,,0.00,,2013-04-30 21:32:00,
2013-04-30 17:42:00,81.0,45.0,30.03,ENE,59,0.0,0.0,28,0.00,,,0.00,,2013-04-30 21:42:00,
2013-04-30 17:52:00,82.0,46.0,30.03,SSW,201,0.0,7.0,28,0.00,,,0.00,,2013-04-30 21:52:00,
2013-04-30 18:02:00,82.0,46.0,30.03,ENE,78,0.0,0.0,28,0.00,,,0.00,,2013-04-30 22:02:00,
2013-04-30 18:12:00,82.0,45.0,30.04,ESE,103,2.0,6.0,27,0.00,,,0.00,,2013-04-30 22:12:00,
2013-04-30 18:23:00,82.0,45.0,30.04,ESE,103,2.0,6.0,27,0.00,,,0.00,,2013-04-30 22:23:00,
2013-04-30 18:33:00,82.0,44.0,30.05,East,95,5.0,7.0,26,0.00,,,0.00,,2013-04-30 22:33:00,
2013-04-30 18:42:00,82.0,44.0,30.05,East,95,5.0,7.0,26,0.00,,,0.00,,2013-04-30 22:42:00,
2013-04-30 18:52:00,80.0,42.0,30.05,ESE,106,2.0,9.0,26,0.00,,,0.00,,2013-04-30 22:52:00,
2013-04-30 19:02:00,79.0,43.0,30.05,SE,135,0.0,5.0,28,0.00,,,0.00,,2013-04-30 23:02:00,
2013-04-30 19:12:00,80.0,44.0,30.05,ESE,111,3.0,8.0,28,0.00,,,0.00,,2013-04-30 23:12:00,
2013-04-30 19:22:00,80.0,44.0,30.05,ESE,111,3.0,8.0,28,0.00,,,0.00,,2013-04-30 23:22:00,
2013-04-30 19:32:00,79.0,44.0,30.06,ENE,68,0.0,0.0,29,0.00,,,0.00,,2013-04-30 23:32:00,
2013-04-30 19:42:00,79.0,44.0,30.06,ENE,68,0.0,0.0,29,0.00,,,0.00,,2013-04-30 23:42:00,
2013-04-30 19:52:00,78.0,44.0,30.06,East,90,0.0,5.0,30,0.00,,,0.00,,2013-04-30 23:52:00,
2013-04-30 20:02:00,77.0,44.0,30.06,SE,137,0.0,0.0,31,0.00,,,0.00,,2013-05-01 00:02:00,
2013-04-30 20:11:00,77.0,44.0,30.06,SE,137,0.0,0.0,31,0.00,,,0.00,,2013-05-01 00:11:00,
2013-04-30 20:22:00,77.0,44.0,30.07,East,93,0.0,0.0,31,0.00,,,0.00,,2013-05-01 00:22:00,
2013-04-30 20:32:00,75.0,43.0,30.07,NE,48,0.0,0.0,32,0.00,,,0.00,,2013-05-01 00:32:00,
2013-04-30 20:42:00,75.0,43.0,30.07,NE,48,0.0,0.0,32,0.00,,,0.00,,2013-05-01 00:42:00,
2013-04-30 20:51:00,75.0,45.0,30.07,NE,48,0.0,0.0,34,0.00,,,0.00,,2013-05-01 00:51:00,
2013-04-30 21:01:00,73.0,44.0,30.08,SSE,154,0.0,0.0,36,0.00,,,0.00,,2013-05-01 01:01:00,
2013-04-30 21:11:00,73.0,45.0,30.09,SSE,161,0.0,0.0,37,0.00,,,0.00,,2013-05-01 01:11:00,
2013-04-30 21:21:00,73.0,45.0,30.09,SSE,161,0.0,0.0,37,0.00,,,0.00,,2013-05-01 01:21:00,
2013-04-30 21:32:00,71.0,45.0,30.09,SSE,161,0.0,0.0,40,0.00,,,0.00,,2013-05-01 01:32:00,
2013-04-30 21:42:00,71.0,45.0,30.09,SSE,161,0.0,0.0,40,0.00,,,0.00,,2013-05-01 01:42:00,
2013-04-30 21:52:00,71.0,46.0,30.09,SW,217,0.0,0.0,41,0.00,,,0.00,,2013-05-01 01:52:00,
2013-04-30 22:02:00,70.0,46.0,30.10,SW,217,0.0,0.0,43,0.00,,,0.00,,2013-05-01 02:02:00,
2013-04-30 22:11:00,70.0,47.0,30.10,SW,217,0.0,0.0,44,0.00,,,0.00,,2013-05-01 02:11:00,
2013-04-30 22:21:00,70.0,47.0,30.10,SW,217,0.0,0.0,44,0.00,,,0.00,,2013-05-01 02:21:00,
2013-04-30 22:32:00,69.0,48.0,30.11,SW,217,0.0,0.0,47,0.00,,,0.00,,2013-05-01 02:32:00,
2013-04-30 22:42:00,69.0,48.0,30.11,SW,217,0.0,0.0,47,0.00,,,0.00,,2013-05-01 02:42:00,
2013-04-30 22:52:00,68.0,48.0,30.11,SW,217,0.0,0.0,48,0.00,,,0.00,,2013-05-01 02:52:00,
2013-04-30 23:02:00,67.0,47.0,30.11,SW,217,0.0,0.0,49,0.00,,,0.00,,2013-05-01 03:02:00,
2013-04-30 23:11:00,67.0,47.0,30.11,SW,217,0.0,0.0,49,0.00,,,0.00,,2013-05-01 03:11:00,
2013-04-30 23:21:00,67.0,48.0,30.11,SSE,164,1.0,0.0,50,0.00,,,0.00,,2013-05-01 03:21:00,
2013-04-30 23:33:00,67.0,49.0,30.11,ESE,116,0.0,0.0,52,0.00,,,0.00,,2013-05-01 03:33:00,
2013-04-30 23:43:00,67.0,49.0,30.11,ESE,116,0.0,0.0,52,0.00,,,0.00,,2013-05-01 03:43:00,
2013-04-30 23:53:00,66.0,48.0,30.11,ESE,116,0.0,0.0,53,0.00,,,0.00,,2013-05-01 03:53:00,